FW5266 Weather Reports


Display with metric or nautical units.
time (UTC)temp
F
wind
direction
speed
MPH
gust
MPH
rain 1hr
in
rain 24hr
in
rain mn
in
humidity
%
barometer
mb
20260507191530 66 17 6.0 14.0 0.00 0.00 0.00 44 1022.9
20260507190029 66 9 5.0 12.0 0.00 0.00 0.00 44 1023.1
20260507183041 63 4 5.0 11.0 0.00 0.00 0.00 52 1023.4
20260507181530 62 2 6.0 11.0 0.00 0.00 0.00 54 1023.5
20260507180033 62 21 8.0 14.0 0.00 0.00 0.00 55 1023.6
20260507174530 62 11 7.0 13.0 0.00 0.00 0.00 55 1023.6
20260507173029 62 2 7.0 14.0 0.00 0.00 0.00 55 1023.7
20260507171605 63 355 9.0 15.0 0.00 0.00 0.00 56 1023.8
20260507170037 64 10 9.0 13.0 0.00 0.00 0.00 55 1023.7
20260507164610 63 329 5.0 11.0 0.00 0.00 0.00 56 1023.7
20260507163033 62 239 4.0 9.0 0.00 0.00 0.00 60 1023.6
20260507161539 61 250 5.0 9.0 0.00 0.00 0.00 63 1023.8
20260507154543 57 253 3.0 6.0 0.00 0.00 0.00 70 1024.2
20260507151532 55 302 1.0 4.0 0.00 0.00 0.00 75 1024.5
20260507150150 54 306 1.0 5.0 0.00 0.00 0.00 79 1024.5
20260507144610 53 317 0.0 3.0 0.00 0.00 0.00 85 1024.6
20260507143031 51 24 0.0 2.0 0.00 0.00 0.00 87 1024.5
20260507141607 48 63 2.0 3.0 0.00 0.00 0.00 89 1024.3
20260507140035 47 90 2.0 4.0 0.00 0.00 0.00 90 1024.2
20260507134608 46 99 2.0 4.0 0.00 0.00 0.00 89 1024.1
20260507130105 46 89 7.0 9.0 0.00 0.00 0.00 88 1024.0
20260507121537 48 61 6.0 10.0 0.00 0.00 0.00 87 1023.8
20260507120029 48 58 6.0 10.0 0.00 0.00 0.00 86 1023.7
20260507114534 48 55 5.0 9.0 0.00 0.00 0.00 86 1023.6
20260507113044 48 61 6.0 11.0 0.00 0.00 0.00 85 1023.5
20260507111549 49 79 5.0 9.0 0.00 0.00 0.00 83 1023.4
20260507110105 50 92 5.0 8.0 0.00 0.00 0.00 83 1023.5
20260507104532 50 50 7.0 11.0 0.00 0.00 0.00 82 1023.3
20260507103042 51 62 8.0 11.0 0.00 0.00 0.00 80 1023.2
20260507100043 52 51 6.0 12.0 0.00 0.00 0.00 76 1023.3
20260507093034 53 105 2.0 4.0 0.00 0.00 0.00 73 1023.3
20260507091530 53 222 1.0 5.0 0.00 0.00 0.00 72 1023.3
20260507090042 55 2 4.0 8.0 0.00 0.00 0.00 69 1023.3
20260507090033 56 333 8.0 13.0 0.00 0.00 0.00 65 1023.3
20260507083033 55 316 8.0 13.0 0.00 0.00 0.00 69 1023.4
20260507073031 60 306 9.0 14.0 0.00 0.00 0.00 54 1023.1
20260507071533 61 285 12.0 19.0 0.00 0.00 0.00 54 1023.1
20260507070030 60 282 11.0 18.0 0.00 0.00 0.00 56 1023.2
20260507064538 58 284 11.0 19.0 0.00 0.00 0.00 63 1023.4
20260507061611 57 356 5.0 11.0 0.00 0.00 0.00 63 1023.7
20260507060106 58 29 7.0 10.0 0.00 0.00 0.00 60 1023.7
20260507054530 59 45 9.0 11.0 0.00 0.00 0.00 56 1023.7
20260507051607 61 319 6.0 13.0 0.00 0.00 0.00 50 1023.8
20260507050030 62 270 10.0 18.0 0.00 0.00 0.00 49 1023.8
20260507044530 62 275 10.0 16.0 0.00 0.00 0.00 48 1023.9
20260507043029 62 271 10.0 16.0 0.00 0.00 0.00 48 1023.9
20260507041531 62 274 9.0 18.0 0.00 0.00 0.00 49 1023.9
20260507040039 63 280 9.0 16.0 0.00 0.00 0.00 48 1023.7
20260507034532 63 279 10.0 19.0 0.00 0.00 0.00 47 1023.7
20260507033108 64 286 13.0 20.0 0.00 0.00 0.00 47 1023.4
20260507030032 65 281 11.0 19.0 0.00 0.00 0.00 46 1023.4
20260507024607 66 292 10.0 21.0 0.00 0.00 0.00 45 1023.2
20260507023031 66 296 16.0 26.0 0.00 0.00 0.00 44 1023.0
20260507021544 67 289 13.0 24.0 0.00 0.00 0.00 44 1023.1
20260507020103 67 318 9.0 17.0 0.00 0.00 0.00 45 1023.1
20260507013107 68 346 7.0 11.0 0.00 0.00 0.00 43 1022.9
20260507011604 69 338 8.0 15.0 0.00 0.00 0.00 42 1022.8
20260507010031 70 330 9.0 17.0 0.00 0.00 0.00 41 1022.6
20260507004530 71 321 10.0 17.0 0.00 0.00 0.00 40 1022.5
20260507003032 71 301 12.0 20.0 0.00 0.00 0.00 39 1022.3
20260507001531 72 293 12.0 19.0 0.00 0.00 0.00 39 1022.1
20260506233029 75 294 14.0 25.0 0.00 0.00 0.00 35 1021.9
20260506231530 76 299 15.0 23.0 0.00 0.00 0.00 35 1021.9
20260506230047 76 289 15.0 24.0 0.00 0.00 0.00 35 1022.0
20260506224532 76 287 16.0 26.0 0.00 0.00 0.00 35 1022.3
20260506223029 75 274 14.0 23.0 0.00 0.00 0.00 35 1022.4
20260506221531 76 280 17.0 30.0 0.00 0.00 0.00 33 1022.4
20260506220029 77 280 18.0 29.0 0.00 0.00 0.00 32 1022.1
20260506213057 77 278 16.0 28.0 0.00 0.00 0.00 34 1022.0
20260506211529 76 266 12.0 21.0 0.00 0.00 0.00 38 1022.4
20260506210029 75 305 13.0 24.0 0.00 0.00 0.00 42 1022.4
20260506204531 75 330 12.0 21.0 0.00 0.00 0.00 43 1022.5
20260506203030 74 355 12.0 18.0 0.00 0.00 0.00 45 1022.5
20260506201547 75 340 11.0 18.0 0.00 0.00 0.00 46 1022.5
20260506200030 74 310 12.0 20.0 0.00 0.00 0.00 47 1022.6
20260506194646 72 31 7.0 16.0 0.00 0.00 0.00 51 1022.8
20260506193029 71 342 12.0 18.0 0.00 0.00 0.00 53 1022.9